DAL995 KSAN-KLAX

Flight info

Callsign DAL995
Flight time 0h 29m
Altitude 10000
Route CWARD2 SLI
Aircraft C25C/M-SDE2E3FGHRWXY/LB1

Departure

Time 2026-04-23 01:39
Airport San Diego International Airport (KSAN)

Arrival

Time 2026-04-23 02:08
Airport Los Angeles International Airport (KLAX)
Time Latitude Longitude Altitude Speed Heading
2026-04-23 01:23 32.73356 -117.17901 19 ft 0 kts 184°
2026-04-23 01:32 32.73318 -117.17940 19 ft 20 kts 234°
2026-04-23 01:33 32.73222 -117.17942 15 ft 0 kts 104°
2026-04-23 01:33 32.73208 -117.17883 16 ft 20 kts 105°
2026-04-23 01:33 32.73176 -117.17750 17 ft 5 kts 103°
2026-04-23 01:33 32.73168 -117.17719 17 ft 4 kts 106°
2026-04-23 01:34 32.73165 -117.17705 17 ft 0 kts 108°
2026-04-23 01:34 32.73164 -117.17702 17 ft 1 kts 109°
2026-04-23 01:34 32.73139 -117.17666 17 ft 4 kts 153°
2026-04-23 01:34 32.73124 -117.17666 16 ft 0 kts 185°
2026-04-23 01:37 32.73082 -117.17676 16 ft 21 kts 196°
2026-04-23 01:37 32.73053 -117.17720 15 ft 0 kts 281°
2026-04-23 01:38 32.73059 -117.17750 15 ft 30 kts 285°
2026-04-23 01:38 32.73240 -117.18439 37 ft 139 kts 295°
2026-04-23 01:39 32.73529 -117.19752 602 ft 181 kts 285°
2026-04-23 01:39 32.73822 -117.21268 1418 ft 193 kts 285°
2026-04-23 01:39 32.74415 -117.22699 2277 ft 200 kts 315°
2026-04-23 01:39 32.75455 -117.23823 3165 ft 209 kts 313°
2026-04-23 01:40 32.76459 -117.25350 4042 ft 259 kts 304°
2026-04-23 01:40 32.77443 -117.27181 4983 ft 252 kts 301°
2026-04-23 01:40 32.78319 -117.28875 5755 ft 234 kts 302°
2026-04-23 01:40 32.79180 -117.30467 6481 ft 225 kts 302°
2026-04-23 01:41 32.80040 -117.31980 7111 ft 218 kts 307°
2026-04-23 01:41 32.80972 -117.33378 7733 ft 213 kts 306°
2026-04-23 01:41 32.81860 -117.34773 8345 ft 210 kts 306°
2026-04-23 01:41 32.82737 -117.36147 8938 ft 207 kts 305°
2026-04-23 01:42 32.83610 -117.37497 9542 ft 204 kts 304°
2026-04-23 01:42 32.84474 -117.38837 10041 ft 208 kts 304°
2026-04-23 01:42 32.85391 -117.40267 10118 ft 228 kts 304°
2026-04-23 01:42 32.86397 -117.41826 10131 ft 247 kts 305°
2026-04-23 01:43 32.87459 -117.43475 10124 ft 245 kts 305°
2026-04-23 01:43 32.88494 -117.45076 10128 ft 243 kts 304°
2026-04-23 01:43 32.89516 -117.46663 10125 ft 241 kts 305°
2026-04-23 01:43 32.90528 -117.48243 10124 ft 239 kts 305°
2026-04-23 01:44 32.91539 -117.49810 10119 ft 238 kts 305°
2026-04-23 01:44 32.92542 -117.51375 10123 ft 237 kts 305°
2026-04-23 01:44 32.93545 -117.52935 10122 ft 237 kts 304°
2026-04-23 01:44 32.94546 -117.54492 10118 ft 237 kts 305°
2026-04-23 01:45 32.95531 -117.56031 10118 ft 237 kts 305°
2026-04-23 01:45 32.96530 -117.57584 10119 ft 236 kts 304°
2026-04-23 01:45 32.97527 -117.59141 10121 ft 236 kts 305°
2026-04-23 01:45 32.98522 -117.60695 10120 ft 236 kts 304°
2026-04-23 01:46 32.99517 -117.62244 10116 ft 235 kts 305°
2026-04-23 01:46 33.00508 -117.63797 10120 ft 235 kts 305°
2026-04-23 01:46 33.01501 -117.65343 10116 ft 235 kts 305°
2026-04-23 01:46 33.02491 -117.66892 10123 ft 235 kts 305°
2026-04-23 01:47 33.03480 -117.68439 10120 ft 234 kts 304°
2026-04-23 01:47 33.04469 -117.69982 10121 ft 234 kts 305°
2026-04-23 01:47 33.05454 -117.71528 10124 ft 234 kts 305°
2026-04-23 01:47 33.06467 -117.73050 10117 ft 235 kts 311°
2026-04-23 01:48 33.07720 -117.74316 10121 ft 236 kts 316°
2026-04-23 01:48 33.08972 -117.75585 10119 ft 236 kts 316°
2026-04-23 01:48 33.10219 -117.76856 10119 ft 236 kts 316°
2026-04-23 01:48 33.11468 -117.78127 10122 ft 236 kts 316°
2026-04-23 01:49 33.12717 -117.79400 10120 ft 236 kts 316°
2026-04-23 01:49 33.13969 -117.80670 10120 ft 236 kts 316°
2026-04-23 01:49 33.15216 -117.81942 10120 ft 236 kts 316°
2026-04-23 01:49 33.16463 -117.83212 10121 ft 235 kts 316°
2026-04-23 01:50 33.17710 -117.84480 10120 ft 236 kts 316°
2026-04-23 01:50 33.18969 -117.85735 10121 ft 237 kts 320°
2026-04-23 01:50 33.20514 -117.86477 10116 ft 244 kts 342°
2026-04-23 01:50 33.22175 -117.86908 10115 ft 244 kts 342°
2026-04-23 01:51 33.23822 -117.87301 10118 ft 244 kts 343°
2026-04-23 01:51 33.25485 -117.87708 10119 ft 244 kts 343°
2026-04-23 01:51 33.27149 -117.88120 10121 ft 244 kts 342°
2026-04-23 01:51 33.28808 -117.88536 10118 ft 244 kts 343°
2026-04-23 01:52 33.30468 -117.88951 10117 ft 244 kts 342°
2026-04-23 01:52 33.32132 -117.89362 10118 ft 244 kts 342°
2026-04-23 01:52 33.33793 -117.89779 10116 ft 244 kts 343°
2026-04-23 01:52 33.35459 -117.90193 10120 ft 244 kts 342°
2026-04-23 01:53 33.37123 -117.90607 10119 ft 244 kts 343°
2026-04-23 01:53 33.38777 -117.91052 10118 ft 242 kts 338°
2026-04-23 01:53 33.40380 -117.91663 10121 ft 242 kts 338°
2026-04-23 01:53 33.41991 -117.92236 10120 ft 242 kts 338°
2026-04-23 01:54 33.43604 -117.92811 10115 ft 242 kts 338°
2026-04-23 01:54 33.45239 -117.93410 9845 ft 252 kts 338°
2026-04-23 01:54 33.46955 -117.94035 9443 ft 264 kts 339°
2026-04-23 01:54 33.48745 -117.94689 9012 ft 275 kts 339°
2026-04-23 01:55 33.50612 -117.95362 8520 ft 284 kts 340°
2026-04-23 01:55 33.52523 -117.96058 8055 ft 290 kts 340°
2026-04-23 01:55 33.54403 -117.96737 7723 ft 269 kts 340°
2026-04-23 01:55 33.56137 -117.97366 7218 ft 255 kts 340°
2026-04-23 01:56 33.57753 -117.97957 7111 ft 230 kts 341°
2026-04-23 01:56 33.59219 -117.98490 7096 ft 214 kts 340°
2026-04-23 01:56 33.60629 -117.99006 7098 ft 211 kts 340°
2026-04-23 01:56 33.62027 -117.99517 7088 ft 210 kts 340°
2026-04-23 01:57 33.63450 -118.00038 6837 ft 220 kts 340°
2026-04-23 01:57 33.64942 -118.00584 6565 ft 228 kts 341°
2026-04-23 01:57 33.66488 -118.01148 6246 ft 237 kts 340°
2026-04-23 01:57 33.68107 -118.01736 5836 ft 247 kts 341°
2026-04-23 01:58 33.69705 -118.02319 5356 ft 240 kts 341°
2026-04-23 01:58 33.71258 -118.02887 5113 ft 224 kts 341°
2026-04-23 01:58 33.72677 -118.03397 5076 ft 202 kts 342°
2026-04-23 01:58 33.74013 -118.03720 5060 ft 196 kts 351°
2026-04-23 01:59 33.75375 -118.03934 5065 ft 200 kts 351°
2026-04-23 01:59 33.76770 -118.04139 5064 ft 204 kts 351°
2026-04-23 01:59 33.78191 -118.04349 5062 ft 208 kts 351°
2026-04-23 01:59 33.79669 -118.04572 4941 ft 223 kts 351°
2026-04-23 02:00 33.81277 -118.04822 4606 ft 243 kts 352°
2026-04-23 02:00 33.82992 -118.05095 4197 ft 247 kts 351°
2026-04-23 02:00 33.84653 -118.05360 3783 ft 238 kts 351°
2026-04-23 02:00 33.86276 -118.05612 3383 ft 231 kts 351°
2026-04-23 02:01 33.87855 -118.05852 2960 ft 229 kts 351°
2026-04-23 02:01 33.89434 -118.06076 2738 ft 224 kts 351°
2026-04-23 02:01 33.90943 -118.06275 2706 ft 214 kts 352°
2026-04-23 02:01 33.92427 -118.06475 2700 ft 214 kts 352°
2026-04-23 02:02 33.93919 -118.06674 2687 ft 217 kts 351°
2026-04-23 02:02 33.95286 -118.07331 2686 ft 214 kts 315°
2026-04-23 02:02 33.95829 -118.08306 2693 ft 213 kts 296°
2026-04-23 02:02 33.96617 -118.10483 2698 ft 215 kts 292°
2026-04-23 02:03 33.97172 -118.12160 2697 ft 216 kts 291°
2026-04-23 02:03 33.97729 -118.13849 2695 ft 218 kts 290°
2026-04-23 02:03 33.97777 -118.15644 2693 ft 218 kts 259°
2026-04-23 02:03 33.97592 -118.16859 2700 ft 218 kts 264°
2026-04-23 02:04 33.97417 -118.18675 2704 ft 219 kts 264°
2026-04-23 02:04 33.97218 -118.20495 2700 ft 219 kts 264°
2026-04-23 02:04 33.97033 -118.22320 2711 ft 219 kts 263°
2026-04-23 02:04 33.96847 -118.24143 2704 ft 219 kts 264°
2026-04-23 02:05 33.96658 -118.25965 2480 ft 225 kts 263°
2026-04-23 02:05 33.96471 -118.27824 2181 ft 223 kts 264°
2026-04-23 02:05 33.96286 -118.29645 1888 ft 214 kts 264°
2026-04-23 02:05 33.96114 -118.31300 1632 ft 186 kts 264°
2026-04-23 02:06 33.95978 -118.32627 1403 ft 132 kts 264°
2026-04-23 02:06 33.95872 -118.33644 1218 ft 118 kts 263°
2026-04-23 02:06 33.95776 -118.34650 1060 ft 120 kts 262°
2026-04-23 02:06 33.95675 -118.35652 902 ft 121 kts 263°
2026-04-23 02:07 33.95569 -118.36671 729 ft 122 kts 261°
2026-04-23 02:07 33.95471 -118.37649 576 ft 116 kts 262°
2026-04-23 02:07 33.95361 -118.38610 403 ft 115 kts 262°
2026-04-23 02:07 33.95276 -118.39544 275 ft 111 kts 263°
2026-04-23 02:08 33.95185 -118.40462 139 ft 112 kts 262°
2026-04-23 02:08 33.95093 -118.41293 119 ft 88 kts 262°
2026-04-23 02:08 33.95009 -118.41806 119 ft 50 kts 242°
2026-04-23 02:08 33.94928 -118.41949 118 ft 0 kts 233°
2026-04-23 02:09 33.94917 -118.41966 116 ft 17 kts 231°
2026-04-23 02:09 33.94784 -118.42176 118 ft 29 kts 234°
2026-04-23 02:09 33.94676 -118.42354 119 ft 25 kts 250°
2026-04-23 02:09 33.94653 -118.42528 119 ft 0 kts 263°
2026-04-23 02:10 33.94652 -118.42543 119 ft 11 kts 262°
2026-04-23 02:10 33.94640 -118.42654 119 ft 14 kts 259°
2026-04-23 02:10 33.94609 -118.42747 118 ft 15 kts 213°
2026-04-23 02:10 33.94616 -118.42702 119 ft 26 kts 48°